This is the latest recevied weather packets stored in our database for station/object SP3ZBZ-13. If no packets are shown the sender has not sent any weather packets the latest 1 day(s).
| Time | Temp. | Humidity | Pressure | Rain* | Wind** | Luminosity | Snow |
|---|---|---|---|---|---|---|---|
| 1778008764 | 11.67° C | 91% | 1004.4 hPa | - | 1.34 m/s, 355° | - | - |
| 1778007862 | 11.67° C | 90% | 1004.4 hPa | - | 0.89 m/s, 348° | - | - |
| 1778006961 | 11.67° C | 90% | 1004.4 hPa | - | 1.34 m/s, 0° | - | - |
| 1778006060 | 11.67° C | 90% | 1004.3 hPa | - | 1.34 m/s, 0° | 1 W/m² | - |
| 1778005159 | 12.22° C | 90% | 1004.1 hPa | - | 1.79 m/s, 1° | 3 W/m² | - |
| 1778004258 | 12.22° C | 88% | 1004.3 hPa | - | 1.79 m/s, 12° | 6 W/m² | - |
| 1778003357 | 12.78° C | 88% | 1004.1 hPa | - | 1.79 m/s, 30° | 16 W/m² | - |
| 1778002456 | 12.78° C | 88% | 1004.1 hPa | - | 1.79 m/s, 6° | 31 W/m² | - |
| 1778001555 | 12.78° C | 88% | 1004.2 hPa | - | 1.34 m/s, 342° | 44 W/m² | - |
| 1778000654 | 12.78° C | 87% | 1004.1 hPa | - | 1.79 m/s, 21° | 54 W/m² | - |
| 1777999753 | 12.78° C | 86% | 1004.1 hPa | - | 1.79 m/s, 1° | 46 W/m² | - |
| 1777998853 | 12.78° C | 86% | 1004.2 hPa | - | 1.79 m/s, 348° | 59 W/m² | - |
| 1777997951 | 12.78° C | 86% | 1004.2 hPa | - | 1.79 m/s, 355° | 53 W/m² | - |
| 1777997051 | 12.78° C | 85% | 1004.2 hPa | - | 2.24 m/s, 10° | 55 W/m² | - |
| 1777996146 | 12.78° C | 84% | 1004.3 hPa | - | 2.24 m/s, 30° | 93 W/m² | - |
| 1777995246 | 12.78° C | 85% | 1004.4 hPa | - | 2.24 m/s, 60° | 84 W/m² | - |
| 1777994345 | 12.78° C | 86% | 1004.5 hPa | - | 1.79 m/s, 78° | 64 W/m² | - |
| 1777993442 | 12.78° C | 89% | 1004.6 hPa | - | 1.79 m/s, 30° | 81 W/m² | - |
| 1777992541 | 12.78° C | 88% | 1004.9 hPa | - | 1.79 m/s, 42° | 77 W/m² | - |
| 1777991640 | 12.78° C | 88% | 1004.8 hPa | - | 1.79 m/s, 18° | 69 W/m² | - |
| 1777990740 | 12.78° C | 86% | 1004.7 hPa | - | 2.24 m/s, 24° | 81 W/m² | - |
| 1777989838 | 12.78° C | 88% | 1004.9 hPa | - | 1.79 m/s, 48° | 80 W/m² | - |
| 1777988937 | 12.78° C | 89% | 1005 hPa | - | 1.79 m/s, 354° | 65 W/m² | - |
| 1777988036 | 12.78° C | 89% | 1005.1 hPa | - | 2.24 m/s, 4° | 76 W/m² | - |
| 1777987135 | 12.78° C | 88% | 1005.2 hPa | - | 2.24 m/s, 6° | 87 W/m² | - |
* Rain since midnight (hover to see other rain measurements)
** Current wind speed in m/s (hover to see current wind gust speed)